EW4557 Weather Reports


Display with metric or nautical units.
time (UTC)temp
F
wind
direction
speed
MPH
gust
MPH
rain 1hr
in
rain 24hr
in
rain mn
in
humidity
%
barometer
mb
20260903062516 80 0.0 2.0 0.00 0.00 0.00 40 1018.4
20260903061636 81 0 1.0 3.0 0.00 0.00 0.00 40 1018.6
20260903060516 81 0 1.0 6.0 0.00 0.00 0.00 39 1018.6
20260903055515 82 0 1.0 4.0 0.00 0.00 0.00 38 1018.5
20260903054555 82 0 3.0 6.0 0.00 0.00 0.00 38 1018.3
20260903053515 82 0 2.0 6.0 0.00 0.00 0.00 37 1018.3
20260903052515 83 0 2.0 6.0 0.00 0.00 0.00 37 1018.2
20260903051515 84 0 3.0 10.0 0.00 0.00 0.00 36 1018.4
20260903050635 84 0 3.0 8.0 0.00 0.00 0.00 36 1018.4
20260903044555 85 0 6.0 11.0 0.00 0.00 0.00 35 1018.0
20260903043635 85 0 6.0 10.0 0.00 0.00 0.00 36 1018.0
20260903041515 75 0 1.0 3.0 0.00 0.00 0.00 48 1017.0
20260903040555 74 0 0.0 2.0 0.00 0.00 0.00 49 1016.6
20260903035555 74 0 1.0 2.0 0.00 0.00 0.00 49 1016.6
20260903033515 76 0.0 0.0 0.00 0.00 0.00 45 1016.4
20260903032635 77 0.0 0.0 0.00 0.00 0.00 44 1016.3
20260903031555 79 0.0 0.0 0.00 0.00 0.00 43 1016.4
20260903030515 80 0.0 0.0 0.00 0.00 0.00 41 1016.6
20260903025555 82 0.0 0.0 0.00 0.00 0.00 40 1016.4
20260903024555 83 0.0 0.0 0.00 0.00 0.00 38 1016.3
20260903023557 84 0.0 0.0 0.00 0.00 0.00 38 1016.2
20260903022517 85 0 0.0 1.0 0.00 0.00 0.00 37 1016.1
20260903021517 85 0 0.0 2.0 0.00 0.00 0.00 37 1015.8
20260903015637 87 0 1.0 3.0 0.00 0.00 0.00 35 1015.3
20260903014557 88 0 2.0 5.0 0.00 0.00 0.00 34 1015.1
20260903013556 88 0 2.0 5.0 0.00 0.00 0.00 34 1014.8
20260903012516 89 0 3.0 12.0 0.00 0.00 0.00 33 1014.8
20260903011516 90 0 3.0 9.0 0.00 0.00 0.00 31 1014.8
20260903010556 91 0 2.0 5.0 0.00 0.01 0.00 31 1014.8
20260903005556 91 0 2.0 10.0 0.00 0.01 0.00 30 1014.8
20260903004516 92 0 3.0 6.0 0.00 0.01 0.00 29 1014.7
20260903003556 93 0 3.0 8.0 0.00 0.01 0.00 28 1015.0
20260903002556 94 0 3.0 5.0 0.00 0.01 0.00 27 1015.0
20260903001556 95 0 3.0 9.0 0.00 0.01 0.00 26 1015.3
20260903000556 95 0 2.0 9.0 0.00 0.01 0.00 26 1015.5
20260902235623 95 0 1.0 6.0 0.00 0.01 0.00 26 1015.4
20260902234556 95 0 2.0 16.0 0.00 0.01 0.00 26 1015.4
20260902232516 96 0 5.0 13.0 0.00 0.01 0.00 24 1015.6
20260902231556 96 0 3.0 8.0 0.00 0.01 0.00 24 1015.9
20260902225516 96 0 4.0 13.0 0.00 0.01 0.00 24 1016.2
20260902224636 96 0 4.0 10.0 0.00 0.02 0.00 25 1016.3
20260902223556 96 0 5.0 15.0 0.00 0.03 0.00 26 1016.4
20260902222556 96 0 8.0 16.0 0.00 0.05 0.00 26 1016.4
20260902221556 95 0 4.0 11.0 0.00 0.06 0.00 26 1016.1
20260902220636 95 0 4.0 14.0 0.00 0.06 0.00 25 1016.4
20260902215516 95 0 5.0 11.0 0.00 0.06 0.00 26 1016.5
20260902214516 95 0 3.0 9.0 0.00 0.06 0.00 26 1016.7
20260902213516 97 0 6.0 13.0 0.00 0.06 0.00 24 1017.0
20260902212636 96 0 3.0 10.0 0.00 0.06 0.00 26 1017.0
20260902211516 95 0 4.0 11.0 0.00 0.06 0.00 26 1017.1
20260902210636 96 0 6.0 13.0 0.00 0.06 0.00 25 1017.4
20260902205556 96 0 4.0 9.0 0.00 0.06 0.00 26 1017.7
20260902204636 95 0 3.0 12.0 0.00 0.06 0.00 26 1017.6
20260902203516 95 0 2.0 5.0 0.00 0.06 0.00 27 1017.8
20260902202516 94 0 3.0 13.0 0.00 0.06 0.00 27 1017.9
20260902201516 95 0 4.0 12.0 0.00 0.06 0.00 27 1018.4
20260902195556 94 0 5.0 12.0 0.00 0.06 0.00 27 1018.7
20260902194516 94 0 2.0 14.0 0.00 0.06 0.00 30 1018.8
20260902193556 93 0 6.0 13.0 0.00 0.06 0.00 30 1019.0
20260902192516 93 0 3.0 10.0 0.00 0.06 0.00 30 1019.2
20260902191516 92 0 5.0 11.0 0.00 0.06 0.00 31 1019.5
20260902190556 92 0 4.0 9.0 0.00 0.06 0.00 32 1019.6
20260902185556 91 0 6.0 13.0 0.00 0.06 0.00 33 1019.6
20260902184515 91 0 5.0 11.0 0.00 0.06 0.00 33 1019.9
20260902183516 91 0 5.0 12.0 0.00 0.06 0.00 34 1020.3
20260902182515 91 0 4.0 13.0 0.00 0.06 0.00 36 1020.6
20260902181515 90 0 5.0 10.0 0.00 0.06 0.00 36 1020.7
20260902180516 90 0 6.0 12.0 0.00 0.06 0.00 37 1020.9
20260902175515 89 0 5.0 13.0 0.00 0.06 0.00 38 1021.1
20260902174636 89 0 5.0 12.0 0.00 0.06 0.00 38 1021.0
20260902173515 88 0 5.0 10.0 0.00 0.06 0.00 39 1020.9
20260902172515 87 0 3.0 9.0 0.00 0.06 0.00 42 1021.0
20260902171635 87 0 6.0 9.0 0.00 0.06 0.00 42 1021.2
20260902170555 87 0 4.0 10.0 0.00 0.06 0.00 45 1021.3
20260902165515 85 0 4.0 10.0 0.00 0.06 0.00 48 1021.1
20260902164515 83 0 2.0 5.0 0.00 0.06 0.00 51 1021.1
20260902163515 82 0 4.0 8.0 0.00 0.06 0.00 53 1020.9
20260902162515 82 0 3.0 8.0 0.00 0.06 0.00 52 1020.9
20260902161515 84 0 4.0 13.0 0.00 0.06 0.00 50 1021.2
20260902160555 83 0 3.0 9.0 0.00 0.06 0.00 51 1021.1
20260902155515 82 0 3.0 10.0 0.00 0.06 0.00 52 1020.9
20260902154635 81 0 4.0 11.0 0.00 0.06 0.00 53 1020.6
20260902153515 80 0 3.0 8.0 0.00 0.06 0.00 56 1020.7
20260902151515 79 0 2.0 5.0 0.00 0.06 0.00 59 1020.7
20260902150515 78 0 4.0 9.0 0.00 0.06 0.00 59 1020.4
20260902145555 77 0 2.0 8.0 0.00 0.06 0.00 63 1020.5
20260902144515 76 0 4.0 9.0 0.00 0.06 0.00 65 1020.5
20260902143515 75 0 1.0 3.0 0.00 0.06 0.00 71 1020.4
20260902141515 72 0.0 0.0 0.00 0.06 0.00 77 1020.1
20260902140515 70 0.0 0.0 0.00 0.06 0.00 82 1020.0
20260902135515 68 0.0 0.0 0.00 0.06 0.00 86 1019.8
20260902134515 67 0.0 0.0 0.00 0.06 0.00 89 1019.6
20260902133515 65 0.0 0.0 0.00 0.06 0.00 91 1019.4
20260902132555 63 0.0 0.0 0.00 0.06 0.00 92 1019.0
20260902130635 62 0.0 1.0 0.00 0.06 0.00 91 1018.8
20260902125515 62 0.0 1.0 0.00 0.06 0.00 91 1018.6
20260902124555 61 0.0 0.0 0.00 0.06 0.00 91 1018.5
20260902123555 61 0.0 0.0 0.00 0.06 0.00 91 1018.4
20260902122515 61 0.0 0.0 0.00 0.06 0.00 90 1018.2
20260902121635 61 0.0 2.0 0.00 0.06 0.00 91 1017.9
20260902115515 61 0 0.0 1.0 0.00 0.06 0.00 90 1017.7
20260902114515 61 0.0 0.0 0.00 0.06 0.00 89 1017.5
20260902113515 61 0.0 0.0 0.00 0.06 0.00 89 1017.4
20260902112517 61 0.0 0.0 0.00 0.06 0.00 89 1017.3
20260902111517 62 0.0 0.0 0.00 0.06 0.00 89 1017.4
20260902110557 62 0.0 0.0 0.00 0.06 0.00 89 1017.5
20260902105557 62 0.0 0.0 0.00 0.06 0.00 89 1017.5
20260902103637 63 0 0.0 1.0 0.00 0.06 0.00 89 1018.4
20260902102556 63 0.0 0.0 0.00 0.06 0.00 89 1019.2
20260902101557 63 0.0 0.0 0.00 0.06 0.00 89 1019.8
20260902100516 63 0.0 0.0 0.00 0.06 0.00 89 1019.7
20260902095517 63 0.0 0.0 0.00 0.06 0.00 89 1020.0
20260902094516 63 0 0.0 2.0 0.00 0.06 0.00 89 1020.3
20260902093637 63 0.0 0.0 0.00 0.06 0.00 89 1020.3
20260902092556 63 0.0 0.0 0.00 0.06 0.00 89 1020.4
20260902091516 63 0.0 0.0 0.00 0.06 0.00 88 1020.3
20260902085636 64 0.0 0.0 0.00 0.06 0.00 88 1020.4
20260902084636 64 0.0 0.0 0.00 0.06 0.00 88 1020.4
20260902083556 64 0.0 0.0 0.00 0.06 0.00 88 1020.4
20260902082516 64 0.0 0.0 0.00 0.06 0.00 88 1020.2
20260902081636 65 0.0 0.0 0.00 0.06 0.00 88 1020.6
20260902080516 65 0.0 0.0 0.00 0.06 0.00 87 1020.6
20260902075516 65 0.0 0.0 0.00 0.06 0.00 87 1020.7
20260902074516 65 0.0 0.0 0.00 0.06 0.00 87 1020.8
20260902073516 65 0.0 0.0 0.00 0.06 0.00 86 1020.6
20260902072516 66 0.0 0.0 0.00 0.06 0.00 86 1020.6
20260902070556 66 0.0 0.0 0.00 0.06 0.00 86 1020.5
20260902065516 67 0.0 0.0 0.00 0.06 0.00 85 1020.3
20260902064636 67 0.0 0.0 0.00 0.06 0.00 85 1020.4
20260902063636 67 0.0 0.0 0.00 0.06 0.00 84 1020.8